Tracking 31027 objects as of 19-Jul-2025
HD Live streaming from Space Station
objects crossing your sky now

STARLINK-30193

Track STARLINK-30193 now!
10-day predictions
STARLINK-30193 is classified as:


NORAD ID: 57414
Int'l Code: 2023-102L
Perigee: 565.8 km
Apogee: 566.6 km
Inclination: 43.0 °
Period: 95.8 minutes
Semi major axis: 6937 km
RCS: Unknown
Launch date: July 20, 2023
Source: United States (US)
Launch site: AIR FORCE WESTERN TEST RANGE (AFWTR)
Your satellite tracking list
SL-8 DEB
Track 1 satellite(s)




NASA's NSSDC Master Catalog

Two Line Element Set (TLE):
1 57414U 23102L   25199.38919857 -.00000155  00000-0  35675-5 0  9998
2 57414  43.0035  81.8025 0000607 263.1476  96.9297 15.02546111110992
Source of the keplerian elements: AFSPC